| time (UTC) | temp F | wind direction | speed knots | gust knots | rain 1hr in | rain 24hr in | rain mn in | humidity % | barometer mb |
| 20260503195940 | 61 | 259 | 7.8 | 11.3 | 0.00 | 0.00 | 0.00 | 70 | 1012.7 |
| 20260503194942 | 61 | 260 | 7.8 | 10.4 | 0.00 | 0.00 | 0.00 | 72 | 1012.7 |
| 20260503193958 | 61 | 286 | 2.6 | 10.4 | 0.00 | 0.00 | 0.00 | 69 | 1012.7 |
| 20260503192957 | 62 | 231 | 4.3 | 9.6 | 0.00 | 0.00 | 0.00 | 70 | 1012.7 |
| 20260503191934 | 61 | 263 | 3.5 | 5.2 | 0.00 | 0.00 | 0.00 | 70 | 1012.7 |
| 20260503190951 | 61 | 267 | 2.6 | 5.2 | 0.00 | 0.00 | 0.00 | 71 | 1012.9 |
| 20260503185921 | 61 | 270 | 4.3 | 6.1 | 0.00 | 0.00 | 0.00 | 71 | 1012.7 |
| 20260503184923 | 60 | 267 | 2.6 | 5.2 | 0.00 | 0.00 | 0.00 | 71 | 1012.7 |
| 20260503183924 | 60 | 265 | 3.5 | 6.1 | 0.00 | 0.00 | 0.00 | 73 | 1012.8 |
| 20260503182922 | 59 | 236 | 4.3 | 7.0 | 0.00 | 0.00 | 0.00 | 73 | 1012.7 |
| 20260503181921 | 59 | 298 | 5.2 | 8.7 | 0.00 | 0.00 | 0.00 | 72 | 1012.7 |
| 20260503180923 | 60 | 232 | 5.2 | 7.0 | 0.00 | 0.00 | 0.00 | 73 | 1012.8 |
| 20260503175932 | 59 | 211 | 4.3 | 7.0 | 0.00 | 0.00 | 0.00 | 74 | 1012.6 |
| 20260503174931 | 59 | 229 | 5.2 | 8.7 | 0.00 | 0.00 | 0.00 | 75 | 1012.6 |
| 20260503173929 | 58 | 213 | 5.2 | 7.8 | 0.00 | 0.00 | 0.00 | 75 | 1012.7 |
| 20260503172949 | 57 | 219 | 6.1 | 11.3 | 0.00 | 0.00 | 0.00 | 76 | 1012.7 |
| 20260503171951 | 56 | 222 | 7.0 | 11.3 | 0.00 | 0.00 | 0.00 | 77 | 1012.7 |
| 20260503170929 | 56 | 224 | 8.7 | 12.2 | 0.00 | 0.00 | 0.00 | 78 | 1012.7 |
| 20260503150929 | 56 | 240 | 2.6 | 7.0 | 0.00 | 0.00 | 0.00 | 76 | 1012.0 |
| 20260503130932 | 55 | 262 | 3.5 | 7.0 | 0.00 | 0.00 | 0.00 | 76 | 1010.6 |
| 20260503080943 | 55 | 253 | 7.8 | 11.3 | 0.00 | 0.00 | 0.00 | 77 | 1011.6 |
| 20260503072000 | 55 | 270 | 7.8 | 11.3 | 0.00 | 0.00 | 0.00 | 77 | 1011.6 |
| 20260503070939 | 55 | 271 | 7.0 | 11.3 | 0.00 | 0.00 | 0.00 | 77 | 1011.6 |
| 20260503054950 | 55 | 267 | 6.1 | 10.4 | 0.00 | 0.00 | 0.00 | 76 | 1011.7 |
| 20260503054008 | 55 | 266 | 7.0 | 10.4 | 0.00 | 0.00 | 0.00 | 77 | 1012.0 |
| 20260503053006 | 55 | 258 | 7.8 | 10.4 | 0.00 | 0.00 | 0.00 | 77 | 1012.1 |
| 20260503051945 | 55 | 260 | 7.8 | 13.0 | 0.00 | 0.00 | 0.00 | 77 | 1012.1 |
| 20260503050944 | 55 | 257 | 7.8 | 12.2 | 0.00 | 0.00 | 0.00 | 77 | 1012.1 |
| 20260503045959 | 55 | 260 | 6.1 | 12.2 | 0.00 | 0.00 | 0.00 | 77 | 1012.1 |
| 20260503044958 | 55 | 260 | 7.8 | 12.2 | 0.00 | 0.00 | 0.00 | 76 | 1012.0 |
| 20260503043957 | 55 | 277 | 7.0 | 13.0 | 0.00 | 0.00 | 0.00 | 77 | 1011.7 |
| 20260503042954 | 55 | 269 | 9.6 | 13.9 | 0.00 | 0.00 | 0.00 | 76 | 1011.7 |
| 20260503041939 | 55 | 245 | 7.0 | 12.2 | 0.00 | 0.00 | 0.00 | 77 | 1011.6 |
| 20260503040941 | 55 | 269 | 8.7 | 13.0 | 0.00 | 0.00 | 0.00 | 77 | 1011.6 |
| 20260503040013 | 56 | 274 | 7.0 | 14.8 | 0.00 | 0.00 | 0.00 | 77 | 1011.6 |
| 20260503034951 | 56 | 261 | 7.8 | 10.4 | 0.00 | 0.00 | 0.00 | 77 | 1011.6 |
| 20260503033949 | 55 | 286 | 7.8 | 13.0 | 0.00 | 0.00 | 0.00 | 77 | 1011.5 |
| 20260503032951 | 56 | 250 | 10.4 | 13.9 | 0.00 | 0.00 | 0.00 | 77 | 1011.5 |
| 20260503031949 | 56 | 264 | 8.7 | 13.9 | 0.00 | 0.00 | 0.00 | 77 | 1011.2 |
| 20260503030950 | 55 | 279 | 6.1 | 13.0 | 0.00 | 0.00 | 0.00 | 76 | 1011.0 |
| 20260503025942 | 56 | 273 | 7.8 | 13.0 | 0.00 | 0.00 | 0.00 | 77 | 1011.0 |
| 20260503025000 | 55 | 279 | 7.8 | 13.0 | 0.00 | 0.00 | 0.00 | 77 | 1011.0 |
| 20260503023944 | 56 | 275 | 7.8 | 14.8 | 0.00 | 0.00 | 0.00 | 77 | 1011.0 |
| 20260503022944 | 56 | 274 | 7.8 | 13.0 | 0.00 | 0.00 | 0.00 | 76 | 1011.0 |
| 20260503021942 | 56 | 288 | 8.7 | 13.9 | 0.00 | 0.00 | 0.00 | 76 | 1011.0 |
| 20260503021004 | 56 | 274 | 9.6 | 13.0 | 0.00 | 0.00 | 0.00 | 76 | 1011.1 |
| 20260503015950 | 56 | 281 | 8.7 | 14.8 | 0.00 | 0.00 | 0.00 | 76 | 1011.1 |
| 20260503014956 | 56 | 260 | 11.3 | 15.6 | 0.00 | 0.00 | 0.00 | 76 | 1011.1 |
| 20260503013954 | 57 | 261 | 9.6 | 15.6 | 0.00 | 0.00 | 0.00 | 76 | 1011.1 |
| 20260503012954 | 57 | 254 | 9.6 | 15.6 | 0.00 | 0.00 | 0.00 | 76 | 1011.1 |
| 20260503011956 | 57 | 264 | 12.2 | 14.8 | 0.00 | 0.00 | 0.00 | 76 | 1011.3 |
| 20260503011000 | 57 | 276 | 11.3 | 14.8 | 0.00 | 0.00 | 0.00 | 75 | 1011.3 |
| 20260503005959 | 57 | 263 | 9.6 | 14.8 | 0.00 | 0.00 | 0.00 | 75 | 1011.3 |
| 20260503004957 | 57 | 259 | 9.6 | 13.9 | 0.00 | 0.00 | 0.00 | 75 | 1011.3 |
| 20260503003956 | 57 | 276 | 9.6 | 14.8 | 0.00 | 0.00 | 0.00 | 75 | 1011.4 |
| 20260503002955 | 57 | 260 | 9.6 | 14.8 | 0.00 | 0.00 | 0.00 | 74 | 1011.4 |
| 20260503001957 | 58 | 271 | 10.4 | 13.9 | 0.00 | 0.00 | 0.00 | 74 | 1011.6 |
| 20260503000955 | 58 | 279 | 10.4 | 14.8 | 0.00 | 0.00 | 0.00 | 74 | 1011.6 |
| 20260502235945 | 58 | 246 | 9.6 | 13.0 | 0.00 | 0.00 | 0.00 | 74 | 1011.6 |
| 20260502234944 | 58 | 261 | 8.7 | 13.0 | 0.00 | 0.00 | 0.00 | 74 | 1011.6 |
| 20260502234003 | 58 | 261 | 9.6 | 13.9 | 0.00 | 0.00 | 0.00 | 74 | 1011.7 |
| 20260502232948 | 59 | 269 | 9.6 | 13.9 | 0.00 | 0.00 | 0.00 | 74 | 1011.7 |
| 20260502231951 | 59 | 257 | 7.8 | 13.0 | 0.00 | 0.00 | 0.00 | 73 | 1012.0 |
| 20260502230949 | 59 | 275 | 7.0 | 13.9 | 0.00 | 0.00 | 0.00 | 73 | 1012.1 |
| 20260502230019 | 59 | 271 | 7.0 | 13.9 | 0.00 | 0.00 | 0.00 | 73 | 1012.1 |
| 20260502224939 | 59 | 243 | 9.6 | 13.9 | 0.00 | 0.00 | 0.00 | 73 | 1012.4 |
| 20260502223941 | 59 | 244 | 9.6 | 13.9 | 0.00 | 0.00 | 0.00 | 73 | 1012.6 |
| 20260502223001 | 59 | 248 | 7.8 | 12.2 | 0.00 | 0.00 | 0.00 | 73 | 1012.8 |
| 20260502221942 | 59 | 257 | 9.6 | 13.9 | 0.00 | 0.00 | 0.00 | 74 | 1012.8 |
| 20260502221000 | 59 | 248 | 9.6 | 13.0 | 0.00 | 0.00 | 0.00 | 74 | 1013.0 |
| 20260502215954 | 59 | 241 | 8.7 | 13.0 | 0.00 | 0.00 | 0.00 | 74 | 1013.0 |
| 20260502215016 | 59 | 246 | 9.6 | 13.0 | 0.00 | 0.00 | 0.00 | 73 | 1013.1 |
| 20260502213953 | 59 | 246 | 12.2 | 15.6 | 0.00 | 0.00 | 0.00 | 73 | 1013.1 |
| 20260502212955 | 59 | 238 | 10.4 | 14.8 | 0.00 | 0.00 | 0.00 | 72 | 1013.1 |
| 20260502211954 | 59 | 240 | 11.3 | 14.8 | 0.00 | 0.00 | 0.00 | 72 | 1013.1 |
| 20260502210955 | 59 | 229 | 12.2 | 14.8 | 0.00 | 0.00 | 0.00 | 73 | 1013.4 |
| 20260502205944 | 59 | 241 | 11.3 | 14.8 | 0.00 | 0.00 | 0.00 | 73 | 1013.5 |
| 20260502204941 | 58 | 240 | 11.3 | 15.6 | 0.00 | 0.00 | 0.00 | 74 | 1013.5 |
| 20260502204019 | 59 | 240 | 9.6 | 14.8 | 0.00 | 0.00 | 0.00 | 74 | 1013.7 |
| 20260502202956 | 58 | 250 | 9.6 | 13.0 | 0.00 | 0.00 | 0.00 | 74 | 1013.7 |
| 20260502201941 | 58 | 251 | 9.6 | 15.6 | 0.00 | 0.00 | 0.00 | 75 | 1013.7 |
| 20260502201002 | 58 | 250 | 9.6 | 15.6 | 0.00 | 0.00 | 0.00 | 75 | 1013.8 |